Weather in Nara

Russia / Kaluga Oblast     55°12′40″N   36°52′59″E
temp.,
°C
wind,
m/s
gust,
m/s
humid.,
%
clouds,
%
prec.,
mm/h
press.,
hPa
HPBL,
m
9 may, sun
sun900:00+6nnw61296100 2.6 1003788
03:00+4nw51197100 4.3 1006866
06:00+3nw61398100 1.4 1008870
09:00+4nnw61192100 3.3 10111053
12:00+5nw51089100 0.4 1013977
15:00+9nw51060100 0.6 10151833
18:00+10nnw5105397 0.1 10171658
21:00+5nw36775 0.1 102099
10 may, mon
mon1000:00+4nw312735 0.0 1023272
03:00+1nnw310840 0.0 1025185
06:00+3n28782 0.0 1028180
09:00+9n47420 0.0 1028933
12:00+12nne46340 0.0 10281478
15:00+14nne45370 0.0 10281589
18:00+13nne35490 0.0 10281018
21:00+6ne23750 0.0 102949
11 may, tue
tue1100:00+5ne24790 0.0 103080
03:00+3ne37830 0.0 1030127
06:00+5ne311770 0.0 1030279
09:00+11ene59573 0.0 1029669
12:00+15ene57510 0.0 1029977
15:00+17ene56515 0.0 10271032
18:00+17ene48635 0.0 1027886
21:00+12ene3118171 0.0 1027282
12 may, wed
wed1200:00+10ene311905 0.0 1026241
03:00+10ne412975 0.0 1025290
06:00+11ene4129566 0.0 1025477
09:00+12ene4995100 0.0 1024506
12:00+12ese3897100 0.8 1024649
15:00+14ese399360 1.0 1023688
18:00+14ese31193100 0.6 1023836
21:00+13e2797100 0.6 1022230
13 may, thu
thu1300:00+11ene279877 0.1 1021198
03:00+12e3998100 0.1 1020310
06:00+12ese3109898 0.4 1019456
09:00+12ese3998100 5.6 1019495
12:00+14se389598 0.8 1019610
15:00+17se478257 1.8 1018867
18:00+16ese48906 1.9 1018633
21:00+13ese399864 2.1 1018262